Regional Weather Roundup
Issued by NWS

Home | Current Version | Previous Version | Graphics & Text | Print | Product List | Glossary Off
Versions: 1 2 3 4 5 6 7 8 9 10 11 12 13 14 15 16 17 18 19 20 21 22 23 24 25 26 27 28 29 30 31 32 33 34 35 36 37 38 39 40 41 42 43 44 45 46 47 48 49 50

000
ASUS43 KMKX 230010
RWRWI

WISCONSIN REGIONAL WEATHER ROUNDUP
NATIONAL WEATHER SERVICE MILWAUKEE/SULLIVAN WI
700 PM CDT SUN APR 22 2018

NOTE: "FAIR" INDICATES FEW OR NO CLOUDS BELOW 12,000 FEET WITH NO
SIGNIFICANT WEATHER AND/OR OBSTRUCTIONS TO VISIBILITY.

WIZ001-002-006>008-014>016-023>028-230100-
NORTHWEST WISCONSIN

CITY           SKY/WX    TMP DP  RH WIND       PRES   REMARKS
SUPERIOR ARPT  FAIR      46  30  52 CALM      30.24S
6HR MIN TEMP:  46; 6HR MAX TEMP:  62;

ASHLAND        FAIR      45  27  49 NW7       30.25S
6HR MIN TEMP:  44; 6HR MAX TEMP:  62;

HAYWARD        FAIR      59  30  33 SW7       30.25F
6HR MIN TEMP:  57; 6HR MAX TEMP:  61;

SIREN          FAIR      60  30  32 S3        30.25S
6HR MIN TEMP:  60; 6HR MAX TEMP:  63;

CUMBERLAND     FAIR      55  28  35 CALM      30.25F
RICE LAKE      FAIR      60  33  35 S3        30.26F
6HR MIN TEMP:  56; 6HR MAX TEMP:  61;

CHETEK         FAIR      60  33  35 S5        30.25F
6HR MIN TEMP:  57; 6HR MAX TEMP:  62;

LADYSMITH      FAIR      59  29  31 SE5       30.28S
6HR MIN TEMP:  58; 6HR MAX TEMP:  61;

EAU CLAIRE     FAIR      62  31  31 S6        30.24F
6HR MIN TEMP:  59; 6HR MAX TEMP:  65;

MENOMONIE      FAIR      63  29  27 E3        30.25S
6HR MIN TEMP:  60; 6HR MAX TEMP:  65;

NEW RICHMOND   FAIR      61  31  33 SE5       30.24F
6HR MIN TEMP:  58; 6HR MAX TEMP:  63;

OSCEOLA        FAIR      61  36  39 SE5       30.26F
6HR MIN TEMP:  59; 6HR MAX TEMP:  64;

$$

WIZ003>005-009-010-017-018-230100-
NORTH CENTRAL WISCONSIN

CITY           SKY/WX    TMP DP  RH WIND       PRES   REMARKS
MANITOWISH WTR FAIR      55  23  28 S5        30.25S
6HR MIN TEMP:  54; 6HR MAX TEMP:  58;

ARBOR VITAE    FAIR      57  22  26 S5        30.26S
6HR MIN TEMP:  57; 6HR MAX TEMP:  59;

WOODRUFF       FAIR      57  22  26 S5        30.26S
6HR MIN TEMP:  57; 6HR MAX TEMP:  59;

RHINELANDER    FAIR      57  24  28 S8        30.28S
6HR MIN TEMP:  55; 6HR MAX TEMP:  60;

EAGLE RIVER    FAIR      58  17  20 SW6       30.26S
6HR MIN TEMP:  55; 6HR MAX TEMP:  60;

LAND O LAKES   FAIR      59  15  17 SW5       30.27S
6HR MIN TEMP:  59; 6HR MAX TEMP:  62;

PHILLIPS       FAIR      56  26  31 S8        30.26S
6HR MIN TEMP:  56; 6HR MAX TEMP:  60;

TOMAHAWK       FAIR      53  23  31 CALM      30.28S
6HR MIN TEMP:  53; 6HR MAX TEMP:  59;

MEDFORD        FAIR      53  33  45 S3        30.27F
6HR MIN TEMP:  53; 6HR MAX TEMP:  56;

MERRILL          N/A     57  22  25 SE6       30.28F
6HR MIN TEMP:  57; 6HR MAX TEMP:  61;

$$

WIZ029-030-035-036-043>047-230100-
CENTRAL WISCONSIN

CITY           SKY/WX    TMP DP  RH WIND       PRES   REMARKS
WAUSAU         FAIR      55  16  21 SE8       30.27S
6HR MIN TEMP:  55; 6HR MAX TEMP:  60;

MOSINEE        PTCLDY    52  21  30 SE9       30.30S
MARSHFIELD     FAIR      54  24  31 E8        30.27S
6HR MIN TEMP:  53; 6HR MAX TEMP:  57;

STEVENS POINT  FAIR      52  16  24 E6        30.30S
6HR MIN TEMP:  51; 6HR MAX TEMP:  55;

WAUPACA        FAIR      56  25  30 SE5       30.30F
6HR MIN TEMP:  56; 6HR MAX TEMP:  59;

WAUTOMA        FAIR      56  29  35 E7        30.29F
6HR MIN TEMP:  56; 6HR MAX TEMP:  58;

WISC RAPIDS    FAIR      55  20  25 E7        30.29S
6HR MIN TEMP:  55; 6HR MAX TEMP:  59;

CAMP DOUGLAS   FAIR      57  29  34 E8        30.26F
6HR MIN TEMP:  57; 6HR MAX TEMP:  62;

$$

WIZ011>013-019>022-031-037>040-048>050-230100-
NORTHEAST WISCONSIN

CITY           SKY/WX    TMP DP  RH WIND       PRES   REMARKS
ANTIGO         FAIR      49  31  49 S6        30.30S
6HR MIN TEMP:  48; 6HR MAX TEMP:  56;

SHAWANO        FAIR      56  23  27 S3        30.30F
6HR MIN TEMP:  55; 6HR MAX TEMP:  58;

OCONTO         FAIR      53  25  33 SE5       30.31S
6HR MIN TEMP:  53; 6HR MAX TEMP:  56;

STURGEON BAY   NOT AVBL
GREEN BAY      FAIR      57  30  35 CALM      30.30F
6HR MIN TEMP:  54; 6HR MAX TEMP:  57;

MANITOWOC      FAIR      51  30  44 E5        30.32F
6HR MIN TEMP:  51; 6HR MAX TEMP:  56;

APPLETON       CLEAR     55  23  28 VRB3      30.28F
CLINTONVILLE   FAIR      55  23  29 SE5       30.30F
6HR MIN TEMP:  54; 6HR MAX TEMP:  56;

OSHKOSH        FAIR      54  31  41 NE3       30.30S
6HR MIN TEMP:  54; 6HR MAX TEMP:  58;

$$

WIZ032>034-041-042-053>061-230100-
SOUTHWEST WISCONSIN

CITY           SKY/WX    TMP DP  RH WIND       PRES   REMARKS
LA CROSSE      FAIR      63  29  27 E7        30.24F
6HR MIN TEMP:  60; 6HR MAX TEMP:  65;

SPARTA         FAIR      60  24  25 E8        30.27S
6HR MIN TEMP:  59; 6HR MAX TEMP:  64;

VIROQUA        FAIR      57  31  37 E7        30.25S
6HR MIN TEMP:  56; 6HR MAX TEMP:  61;

BOSCOBEL       FAIR      64  25  22 VRB6      30.24F
6HR MIN TEMP:  64; 6HR MAX TEMP:  68;

PRAIRIE DU CHI FAIR      64  20  19 NE9       30.22S
6HR MIN TEMP:  62; 6HR MAX TEMP:  66;

PLATTEVILLE    FAIR      62  34  35 E9        30.24R
6HR MIN TEMP:  59; 6HR MAX TEMP:  65;

$$

WIZ056-057-062-063-064-067-068-230100-
SOUTH CENTRAL WISCONSIN

CITY           SKY/WX    TMP DP  RH WIND       PRES   REMARKS
REEDSBURG      FAIR      58  30  33 NE8       30.26S
6HR MIN TEMP:  57; 6HR MAX TEMP:  62;

BARABOO/DELLS  FAIR      56  28  33 E7        30.27S
6HR MIN TEMP:  56; 6HR MAX TEMP:  61;

LONE ROCK      FAIR      61  32  33 NE10      30.25S
6HR MIN TEMP:  60; 6HR MAX TEMP:  65;

MINERAL POINT  FAIR      63  30  29 E8        30.24S
MADISON        MOCLDY    56  29  35 E12       30.27S
6HR MIN TEMP:  56; 6HR MAX TEMP:  63;

MIDDLETON      FAIR      59  28  31 E10       30.27S
6HR MIN TEMP:  59; 6HR MAX TEMP:  64;

WATERTOWN      FAIR      54  28  37 E7        30.28S
6HR MIN TEMP:  54; 6HR MAX TEMP:  59;

MONROE         FAIR      57  25  28 E12       30.25S
JANESVILLE     CLEAR     61  21  21 E14G20    30.26S
$$

WIZ051-052-058>065-066-070>072-230100-
SOUTHEAST WISCONSIN

CITY           SKY/WX    TMP DP  RH WIND       PRES   REMARKS
MILWAUKEE      MOCLDY    49  27  42 NE9       30.29S
6HR MIN TEMP:  49; 6HR MAX TEMP:  57;

WAUKESHA       CLEAR     55  25  30 E7        30.29F
MILWAUKEE/TIMM CLEAR     57  18  21 NE6       30.29F
RACINE         FAIR      47  26  44 N15G21    30.30S
6HR MIN TEMP:  47; 6HR MAX TEMP:  56;

BURLINGTON     FAIR      56  25  30 E8        30.27S
6HR MIN TEMP:  56; 6HR MAX TEMP:  61;

KENOSHA        FAIR      54  28  36 NE8       30.27S
6HR MIN TEMP:  53; 6HR MAX TEMP:  60;

FOND DU LAC    FAIR      54  34  46 CALM      30.29F
6HR MIN TEMP:  54; 6HR MAX TEMP:  58;

SHEBOYGAN      FAIR      46  28  49 NE10      30.31R
6HR MIN TEMP:  46; 6HR MAX TEMP:  58;

WEST BEND      FAIR      54  21  28 E3        30.29S
JUNEAU         FAIR      53  30  42 CALM      30.29F
6HR MIN TEMP:  53; 6HR MAX TEMP:  57;

$$

LSZ147-162-230100-
LAKE SUPERIOR

STATION/POSITION TIME  TEMP    WIND        PRES    WAVE
                       AIR SEA DIR/SP/G            HT/PER
                 (UTC) (F)     (DEG/KT/KT) (MB)    (FT/S)
DEVILS ISLAND    2300   43     120/ 10/ 11 1025.1F
SAXON HARBOR     2340   38     320/  3/  4 1024.0R
$$

LMZ867-665-643>646-230100-
LAKE MICHIGAN

STATION/POSITION TIME  TEMP    WIND        PRES    WAVE
                       AIR SEA DIR/SP/G            HT/PER



USA.gov is the U.S. government's official web portal to all federal, state and local government web resources and services.